• In Uzbekistan
  • List of Countries
  • For 7 days
  • Water Temperature
  • Satellite Maps
  • Weather Map
  • Weather Widgets
  • user-avatar
    Login

    Hourly Weather Naftalan

    Today, 30 May, Tuesday

    Time Temperature Precipitation Wind Pressure Humidity
    00:00 +19°C° 0 mm 3 mps 767 mmHg 75%
    01:00 +18°C° 0 mm 3 mps 767 mmHg 77%
    02:00 +18°C° 0 mm 3 mps 767 mmHg 80%
    03:00 +17°C° 0 mm 2 mps 766 mmHg 82%
    04:00 +18°C° 0 mm 2 mps 766 mmHg 79%
    05:00 +19°C° 0 mm 2 mps 766 mmHg 76%
    06:00 +20°C° 0 mm 2 mps 766 mmHg 73%
    07:00 +23°C° 0 mm 2 mps 765 mmHg 66%
    08:00 +24°C° 0 mm 2 mps 765 mmHg 58%
    09:00 +26°C° 0 mm 2 mps 765 mmHg 51%
    10:00 +27°C° 0 mm 2 mps 764 mmHg 47%
    11:00 +29°C° 0 mm 2 mps 764 mmHg 44%
    12:00 +30°C° 0 mm 3 mps 763 mmHg 40%
    13:00 +30°C° 0 mm 3 mps 763 mmHg 40%
    14:00 +30°C° 0 mm 4 mps 762 mmHg 39%
    15:00 +32°C° 0 mm 4 mps 762 mmHg 39%
    16:00 +29°C° 0 mm 4 mps 761 mmHg 44%
    17:00 +28°C° 0 mm 4 mps 761 mmHg 49%
    18:00 +26°C° 0 mm 4 mps 761 mmHg 54%
    19:00 +25°C° 0 mm 4 mps 761 mmHg 60%
    20:00 +22°C° 0 mm 3 mps 761 mmHg 66%
    21:00 +21°C° 0 mm 3 mps 761 mmHg 71%
    22:00 +20°C° 0 mm 2 mps 761 mmHg 73%
    23:00 +20°C° 0 mm 2 mps 761 mmHg 75%

    Tomorrow, 31 May, Wednesday

    Time Temperature Precipitation Wind Pressure Humidity
    00:00 +21°C° 0 mm 1 mps 761 mmHg 77%
    01:00 +20°C° 0 mm 1 mps 760 mmHg 78%
    02:00 +20°C° 0 mm 1 mps 760 mmHg 79%
    03:00 +20°C° 0 mm 1 mps 760 mmHg 80%
    04:00 +22°C° 0 mm 1 mps 760 mmHg 73%
    05:00 +23°C° 0 mm 1 mps 760 mmHg 67%
    06:00 +23°C° 0 mm 0 mps 760 mmHg 61%
    07:00 +27°C° 0 mm 1 mps 760 mmHg 55%
    08:00 +28°C° 0 mm 1 mps 760 mmHg 48%
    09:00 +30°C° 0 mm 2 mps 760 mmHg 42%
    10:00 +31°C° 0 mm 3 mps 759 mmHg 40%
    11:00 +33°C° 0 mm 4 mps 759 mmHg 38%
    12:00 +34°C° 0 mm 4 mps 758 mmHg 36%
    13:00 +34°C° 0 mm 5 mps 758 mmHg 36%
    14:00 +33°C° 0 mm 5 mps 757 mmHg 37%
    15:00 +33°C° 0 mm 5 mps 757 mmHg 37%
    16:00 +32°C° 0 mm 5 mps 757 mmHg 41%
    17:00 +29°C° 0 mm 5 mps 757 mmHg 45%
    18:00 +27°C° 0 mm 5 mps 757 mmHg 49%
    19:00 +26°C° 0 mm 5 mps 757 mmHg 54%
    20:00 +23°C° 0 mm 5 mps 758 mmHg 58%
    21:00 +21°C° 0 mm 5 mps 758 mmHg 63%
    22:00 +21°C° 0 mm 5 mps 758 mmHg 64%
    23:00 +21°C° 0 mm 4 mps 758 mmHg 64%

    Day after tomorrow, 1 June, Thursday

    Time Temperature Precipitation Wind Pressure Humidity
    00:00 +20°C° 0 mm 4 mps 758 mmHg 65%
    01:00 +20°C° 0 mm 4 mps 758 mmHg 65%
    02:00 +20°C° 0 mm 3 mps 758 mmHg 66%
    03:00 +19°C° 0 mm 3 mps 758 mmHg 66%
    04:00 +20°C° 0 mm 3 mps 759 mmHg 63%
    05:00 +22°C° 0 mm 3 mps 759 mmHg 60%
    06:00 +24°C° 0 mm 3 mps 759 mmHg 57%
    07:00 +26°C° 0 mm 3 mps 759 mmHg 52%
    08:00 +27°C° 0 mm 3 mps 759 mmHg 47%
    09:00 +29°C° 0 mm 3 mps 759 mmHg 41%
    10:00 +30°C° 0 mm 3 mps 759 mmHg 38%
    11:00 +31°C° 0 mm 3 mps 759 mmHg 35%
    12:00 +34°C° 0 mm 3 mps 759 mmHg 31%
    13:00 +33°C° 0 mm 4 mps 758 mmHg 34%
    14:00 +33°C° 0 mm 5 mps 758 mmHg 36%
    15:00 +32°C° 0 mm 6 mps 758 mmHg 38%
    16:00 +30°C° 0 mm 5 mps 758 mmHg 42%
    17:00 +29°C° 0 mm 5 mps 758 mmHg 45%
    18:00 +27°C° 0 mm 4 mps 758 mmHg 49%
    19:00 +26°C° 0.1 mm 4 mps 759 mmHg 54%
    20:00 +23°C° 0.1 mm 4 mps 759 mmHg 59%
    21:00 +22°C° 0.1 mm 3 mps 760 mmHg 64%
    22:00 +22°C° 0 mm 3 mps 760 mmHg 65%
    23:00 +21°C° 0 mm 3 mps 760 mmHg 65%

    2 June, Friday

    Time Temperature Precipitation Wind Pressure Humidity
    00:00 +21°C° 0 mm 3 mps 760 mmHg 65%
    01:00 +20°C° 0 mm 3 mps 760 mmHg 65%
    02:00 +20°C° 0 mm 3 mps 760 mmHg 65%
    03:00 +19°C° 0 mm 2 mps 760 mmHg 66%
    04:00 +21°C° 0 mm 2 mps 760 mmHg 62%
    05:00 +23°C° 0 mm 2 mps 760 mmHg 58%
    06:00 +24°C° 0 mm 2 mps 761 mmHg 54%
    07:00 +26°C° 0 mm 2 mps 761 mmHg 49%
    08:00 +27°C° 0 mm 2 mps 761 mmHg 44%
    09:00 +29°C° 0 mm 2 mps 761 mmHg 39%
    10:00 +30°C° 0 mm 2 mps 761 mmHg 37%
    11:00 +31°C° 0 mm 3 mps 761 mmHg 35%
    12:00 +33°C° 0 mm 3 mps 760 mmHg 32%
    13:00 +33°C° 0 mm 4 mps 760 mmHg 33%
    14:00 +33°C° 0 mm 5 mps 760 mmHg 34%
    15:00 +33°C° 0 mm 5 mps 760 mmHg 35%
    16:00 +30°C° 0 mm 5 mps 760 mmHg 39%
    17:00 +29°C° 0 mm 5 mps 760 mmHg 43%
    18:00 +27°C° 0 mm 5 mps 760 mmHg 47%
    19:00 +26°C° 0 mm 4 mps 761 mmHg 52%
    20:00 +24°C° 0 mm 3 mps 761 mmHg 57%
    21:00 +23°C° 0 mm 2 mps 762 mmHg 62%
    22:00 +21°C° 0 mm 2 mps 762 mmHg 65%
    23:00 +21°C° 0 mm 2 mps 762 mmHg 67%

    3 June, Saturday

    Time Temperature Precipitation Wind Pressure Humidity
    00:00 +20°C° 0 mm 2 mps 762 mmHg 70%
    01:00 +20°C° 0 mm 2 mps 762 mmHg 71%
    02:00 +19°C° 0 mm 2 mps 762 mmHg 73%
    03:00 +19°C° 0 mm 2 mps 762 mmHg 74%
    04:00 +20°C° 0 mm 2 mps 763 mmHg 70%
    05:00 +23°C° 0 mm 2 mps 763 mmHg 66%
    06:00 +24°C° 0 mm 2 mps 764 mmHg 61%
    07:00 +25°C° 0 mm 3 mps 764 mmHg 56%
    08:00 +27°C° 0 mm 4 mps 765 mmHg 51%
    09:00 +28°C° 0 mm 5 mps 765 mmHg 45%
    10:00 +28°C° 0.1 mm 5 mps 765 mmHg 44%
    11:00 +29°C° 0.1 mm 6 mps 765 mmHg 44%
    12:00 +29°C° 0.1 mm 7 mps 765 mmHg 43%
    13:00 +29°C° 0 mm 7 mps 765 mmHg 43%
    14:00 +28°C° 0 mm 6 mps 765 mmHg 42%
    15:00 +28°C° 0 mm 6 mps 765 mmHg 42%
    16:00 +27°C° 0 mm 5 mps 765 mmHg 44%
    17:00 +26°C° 0 mm 5 mps 765 mmHg 47%
    18:00 +25°C° 0 mm 4 mps 765 mmHg 49%
    19:00 +24°C° 0 mm 3 mps 765 mmHg 55%
    20:00 +23°C° 0 mm 2 mps 766 mmHg 61%
    21:00 +20°C° 0 mm 2 mps 766 mmHg 67%
    22:00 +20°C° 0 mm 2 mps 766 mmHg 69%
    23:00 +20°C° 0 mm 1 mps 766 mmHg 72%

    4 June, Sunday

    Time Temperature Precipitation Wind Pressure Humidity
    00:00 +20°C° 0 mm 1 mps 766 mmHg 74%
    01:00 +19°C° 0 mm 1 mps 766 mmHg 75%
    02:00 +19°C° 0 mm 1 mps 766 mmHg 76%
    03:00 +19°C° 0 mm 1 mps 766 mmHg 77%
    04:00 +20°C° 0 mm 1 mps 766 mmHg 72%
    05:00 +21°C° 0 mm 1 mps 767 mmHg 67%
    06:00 +23°C° 0 mm 1 mps 767 mmHg 62%
    07:00 +24°C° 0 mm 1 mps 767 mmHg 54%
    08:00 +26°C° 0 mm 2 mps 767 mmHg 46%
    09:00 +27°C° 0 mm 2 mps 768 mmHg 38%
    10:00 +28°C° 0 mm 3 mps 767 mmHg 36%
    11:00 +29°C° 0 mm 3 mps 767 mmHg 33%
    12:00 +30°C° 0 mm 4 mps 767 mmHg 31%
    13:00 +30°C° 0 mm 4 mps 767 mmHg 30%
    14:00 +30°C° 0 mm 5 mps 766 mmHg 30%
    15:00 +30°C° 0 mm 5 mps 766 mmHg 30%
    16:00 +29°C° 0 mm 5 mps 766 mmHg 33%
    17:00 +27°C° 0 mm 4 mps 767 mmHg 37%
    18:00 +26°C° 0 mm 4 mps 767 mmHg 40%
    19:00 +23°C° 0 mm 4 mps 767 mmHg 48%
    20:00 +22°C° 0 mm 3 mps 767 mmHg 56%
    21:00 +20°C° 0 mm 2 mps 768 mmHg 64%
    22:00 +20°C° 0 mm 2 mps 768 mmHg 66%
    23:00 +19°C° 0 mm 2 mps 768 mmHg 68%
    Show more